Skip Page Navigation
NASA JPL Caltech
NASA Logo - Jet Propulsion Laboratory + View the NASA Portal
+ Center for Near-Earth Object Studies
JPL Home Earth Solar System Stars & Galaxies Technology
JPL Solar System Dynamics
BODIES ORBITS EPHEMERIDES TOOLS PHYSICAL DATA DISCOVERY FAQ SITE MAP
IMPORTANT: The SSD Announcement email list is now available. Major changes are coming in the near future, including possible hostname and/or URL changes. To be notified of such changes, subscribe to this email list.

Please visit this page for more details.


JPL Small-Body Database Browser
Search: [ help ]  
442171 (2010 WV11)
Classification: Main-belt Asteroid          SPK-ID: 2442171
Ephemeris | Orbit Diagram | Orbital Elements | Mission Design | Physical Parameters | Discovery Circumstances | Close-Approach Data ]

[ show orbit diagram ]
Orbital Elements at Epoch 2459000.5 (2020-May-31.0) TDB
Reference: JPL 12 (heliocentric ecliptic J2000)
 Element Value Uncertainty (1-sigma)   Units 
e .08753278673897082 1.2651e-07  
a 3.159960862632911 1.0642e-07 au
q 2.88336068234057 4.655e-07 au
i 12.19489086172172 1.1932e-05 deg
node 277.7417982013224 5.3806e-05 deg
peri 147.596633489153 0.00012874 deg
M 242.7740202472353 0.00013127 deg
tp 2459668.601355510284
(2022-Mar-30.10135551)
0.00077562 TDB
period 2051.733655721737
5.62
0.00010365
2.838e-07
d
yr
n .1754613709221254 8.8637e-09 deg/d
Q 3.436561042925252 1.1574e-07 au
  Orbit Determination Parameters
   # obs. used (total)      64  
   data-arc span      4957 days (13.57 yr)  
   first obs. used      2005-12-04  
   last obs. used      2019-07-01  
   planetary ephem.      DE431  
   SB-pert. ephem.      SB431-N16  
   condition code      0  
   norm. resid. RMS      .75177  
   source      ORB  
   producer      Otto Matic  
   solution date      2019-Sep-24 07:42:51  

Additional Information
 Earth MOID = 1.90594 au 
 Jupiter MOID = 1.82561 au 
 T_jup = 3.164 
[ show covariance matrix ]

Ephemeris | Orbit Diagram | Orbital Elements | Mission Design | Physical Parameters | Discovery Circumstances | Close-Approach Data ]

Physical Parameter Table
Parameter Symbol Value Units Sigma Reference Notes
absolute magnitude H 16.3   n/a MPO446753  

442171 (2010 WV11)          Discovered 2005-Dec-04 by Mt. Lemmon Survey at Mount Lemmon
Reference: Last Updated: 2015-09-02

[ show close-approach data ]
Alternate Designations
 2010 WV11 = 2005 YQ120 
Ephemeris | Orbit Diagram | Orbital Elements | Mission Design | Physical Parameters | Discovery Circumstances | Close-Approach Data ]
ABOUT SSD CREDITS/AWARDS PRIVACY/COPYRIGHT GLOSSARY LINKS
FirstGov 2020-May-30 22:40 UT
(server date/time)  
NASA Home Page
Site Manager:   Ryan S. Park
Webmaster  Alan B. Chamberlin